Year,Month,Day,Hour,Minute,Value (Times are PST for temperature in C)
2012,08,17,00,00,16.60
2012,08,17,00,01,16.50
2012,08,17,00,02,16.50
2012,08,17,00,03,16.50
2012,08,17,00,04,16.40
2012,08,17,00,05,16.40
2012,08,17,00,06,16.40
2012,08,17,00,07,16.40
2012,08,17,00,08,16.40
2012,08,17,00,09,16.40
2012,08,17,00,10,16.30
2012,08,17,00,11,16.30
2012,08,17,00,12,16.30
2012,08,17,00,13,16.30
2012,08,17,00,14,16.30
2012,08,17,00,15,16.30
2012,08,17,00,16,16.30
2012,08,17,00,17,16.30
2012,08,17,00,18,16.30
2012,08,17,00,19,16.30
2012,08,17,00,20,16.30
2012,08,17,00,21,16.30
2012,08,17,00,22,16.30
2012,08,17,00,23,16.30
2012,08,17,00,24,16.20
2012,08,17,00,25,16.20
2012,08,17,00,26,16.20
2012,08,17,00,27,16.20
2012,08,17,00,28,16.20
2012,08,17,00,29,16.20
2012,08,17,00,30,16.20
2012,08,17,00,31,16.10
2012,08,17,00,32,16.10
2012,08,17,00,33,16.10
2012,08,17,00,34,16.10
2012,08,17,00,35,16.00
2012,08,17,00,36,16.00
2012,08,17,00,37,15.90
2012,08,17,00,38,15.90
2012,08,17,00,39,15.90
2012,08,17,00,40,15.90
2012,08,17,00,41,15.90
2012,08,17,00,42,15.90
2012,08,17,00,43,15.90
2012,08,17,00,44,15.90
2012,08,17,00,45,15.90
2012,08,17,00,46,15.90
2012,08,17,00,47,15.90
2012,08,17,00,48,15.90
2012,08,17,00,49,15.90
2012,08,17,00,50,15.90
2012,08,17,00,51,15.90
2012,08,17,00,52,15.90
2012,08,17,00,53,15.90
2012,08,17,00,54,15.90
2012,08,17,00,55,16.00
2012,08,17,00,56,16.00
2012,08,17,00,57,16.00
2012,08,17,00,58,16.00
2012,08,17,00,59,16.00
2012,08,17,01,00,16.00
2012,08,17,01,01,16.00
2012,08,17,01,02,15.90
2012,08,17,01,03,15.90
2012,08,17,01,04,15.90
2012,08,17,01,05,15.90
2012,08,17,01,06,15.90
2012,08,17,01,07,15.90
2012,08,17,01,08,15.80
2012,08,17,01,09,15.80
2012,08,17,01,10,15.80
2012,08,17,01,11,15.80
2012,08,17,01,12,15.80
2012,08,17,01,13,15.70
2012,08,17,01,14,15.70
2012,08,17,01,15,15.70
2012,08,17,01,16,15.70
2012,08,17,01,17,15.60
2012,08,17,01,18,15.60
2012,08,17,01,19,15.60
2012,08,17,01,20,15.60
2012,08,17,01,21,15.50
2012,08,17,01,22,15.50
2012,08,17,01,23,15.50
2012,08,17,01,24,15.50
2012,08,17,01,25,15.50
2012,08,17,01,26,15.50
2012,08,17,01,27,15.50
2012,08,17,01,28,15.50
2012,08,17,01,29,15.50
2012,08,17,01,30,15.50
2012,08,17,01,31,15.50
2012,08,17,01,32,15.50
2012,08,17,01,33,15.50
2012,08,17,01,34,15.60
2012,08,17,01,35,15.60
2012,08,17,01,36,15.60
2012,08,17,01,37,15.60
2012,08,17,01,38,15.60
2012,08,17,01,39,15.60
2012,08,17,01,40,15.60
2012,08,17,01,41,15.60
2012,08,17,01,42,15.50
2012,08,17,01,43,15.50
2012,08,17,01,44,15.50
2012,08,17,01,45,15.50
2012,08,17,01,46,15.50
2012,08,17,01,47,15.40
2012,08,17,01,48,15.40
2012,08,17,01,49,15.40
2012,08,17,01,50,15.40
2012,08,17,01,51,15.30
2012,08,17,01,52,15.30
2012,08,17,01,53,15.30
2012,08,17,01,54,15.30
2012,08,17,01,55,15.30
2012,08,17,01,56,15.20
2012,08,17,01,57,15.20
2012,08,17,01,58,15.20
2012,08,17,01,59,15.20
2012,08,17,02,00,15.20
2012,08,17,02,01,15.20
2012,08,17,02,02,15.30
2012,08,17,02,03,15.30
2012,08,17,02,04,15.20
2012,08,17,02,05,15.20
2012,08,17,02,06,15.20
2012,08,17,02,07,15.20
2012,08,17,02,08,15.20
2012,08,17,02,09,15.20
2012,08,17,02,10,15.20
2012,08,17,02,11,15.20
2012,08,17,02,12,15.20
2012,08,17,02,13,15.10
2012,08,17,02,14,15.10
2012,08,17,02,15,15.10
2012,08,17,02,16,15.10
2012,08,17,02,17,15.10
2012,08,17,02,18,15.00
2012,08,17,02,19,15.00
2012,08,17,02,20,15.00
2012,08,17,02,21,15.00
2012,08,17,02,22,15.00
2012,08,17,02,23,15.00
2012,08,17,02,24,15.00
2012,08,17,02,25,15.00
2012,08,17,02,26,15.00
2012,08,17,02,27,15.00
2012,08,17,02,28,15.00
2012,08,17,02,29,15.00
2012,08,17,02,30,15.00
2012,08,17,02,31,15.00
2012,08,17,02,32,15.00
2012,08,17,02,33,15.00
2012,08,17,02,34,15.00
2012,08,17,02,35,15.00
2012,08,17,02,36,15.00
2012,08,17,02,37,15.00
2012,08,17,02,38,15.00
2012,08,17,02,39,14.90
2012,08,17,02,40,14.90
2012,08,17,02,41,14.90
2012,08,17,02,42,14.90
2012,08,17,02,43,14.90
2012,08,17,02,44,14.90
2012,08,17,02,45,14.90
2012,08,17,02,46,14.90
2012,08,17,02,47,14.90
2012,08,17,02,48,14.80
2012,08,17,02,49,14.80
2012,08,17,02,50,14.80
2012,08,17,02,51,14.80
2012,08,17,02,52,14.80
2012,08,17,02,53,14.80
2012,08,17,02,54,14.80
2012,08,17,02,55,14.80
2012,08,17,02,56,14.80
2012,08,17,02,57,14.70
2012,08,17,02,58,14.70
2012,08,17,02,59,14.70
2012,08,17,03,00,14.70
2012,08,17,03,01,14.70
2012,08,17,03,02,14.70
2012,08,17,03,03,14.70
2012,08,17,03,04,14.70
2012,08,17,03,05,14.70
2012,08,17,03,06,14.70
2012,08,17,03,07,14.70
2012,08,17,03,08,14.70
2012,08,17,03,09,14.70
2012,08,17,03,10,14.70
2012,08,17,03,11,14.70
2012,08,17,03,12,14.70
2012,08,17,03,13,14.70
2012,08,17,03,14,14.70
2012,08,17,03,15,14.60
2012,08,17,03,16,14.60
2012,08,17,03,17,14.60
2012,08,17,03,18,14.60
2012,08,17,03,19,14.60
2012,08,17,03,20,14.60
2012,08,17,03,21,14.60
2012,08,17,03,22,14.60
2012,08,17,03,23,14.60
2012,08,17,03,24,14.60
2012,08,17,03,25,14.60
2012,08,17,03,26,14.70
2012,08,17,03,27,14.70
2012,08,17,03,28,14.70
2012,08,17,03,29,14.70
2012,08,17,03,30,14.70
2012,08,17,03,31,14.70
2012,08,17,03,32,14.70
2012,08,17,03,33,14.70
2012,08,17,03,34,14.70
2012,08,17,03,35,14.70
2012,08,17,03,36,14.60
2012,08,17,03,37,14.60
2012,08,17,03,38,14.60
2012,08,17,03,39,14.60
2012,08,17,03,40,14.60
2012,08,17,03,41,14.60
2012,08,17,03,42,14.60
2012,08,17,03,43,14.60
2012,08,17,03,44,14.60
2012,08,17,03,45,14.60
2012,08,17,03,46,14.60
2012,08,17,03,47,14.60
2012,08,17,03,48,14.60
2012,08,17,03,49,14.60
2012,08,17,03,50,14.60
2012,08,17,03,51,14.50
2012,08,17,03,52,14.50
2012,08,17,03,53,14.50
2012,08,17,03,54,14.50
2012,08,17,03,55,14.40
2012,08,17,03,56,14.40
2012,08,17,03,57,14.40
2012,08,17,03,58,14.40
2012,08,17,03,59,14.40
2012,08,17,04,00,14.40
2012,08,17,04,01,14.40
2012,08,17,04,02,14.40
2012,08,17,04,03,14.40
2012,08,17,04,04,14.40
2012,08,17,04,05,14.40
2012,08,17,04,06,14.30
2012,08,17,04,07,14.30
2012,08,17,04,08,14.40
2012,08,17,04,09,14.40
2012,08,17,04,10,14.40
2012,08,17,04,11,14.40
2012,08,17,04,12,14.50
2012,08,17,04,13,14.50
2012,08,17,04,14,14.60
2012,08,17,04,15,14.60
2012,08,17,04,16,14.70
2012,08,17,04,17,14.70
2012,08,17,04,18,14.70
2012,08,17,04,19,14.80
2012,08,17,04,20,14.80
2012,08,17,04,21,14.80
2012,08,17,04,22,14.90
2012,08,17,04,23,14.90
2012,08,17,04,24,14.90
2012,08,17,04,25,15.00
2012,08,17,04,26,15.00
2012,08,17,04,27,15.00
2012,08,17,04,28,15.10
2012,08,17,04,29,15.10
2012,08,17,04,30,15.10
2012,08,17,04,31,15.00
2012,08,17,04,32,15.00
2012,08,17,04,33,15.00
2012,08,17,04,34,15.00
2012,08,17,04,35,14.90
2012,08,17,04,36,14.90
2012,08,17,04,37,14.90
2012,08,17,04,38,14.90
2012,08,17,04,39,14.90
2012,08,17,04,40,14.90
2012,08,17,04,41,14.90
2012,08,17,04,42,14.90
2012,08,17,04,43,14.90
2012,08,17,04,44,14.90
2012,08,17,04,45,15.00
2012,08,17,04,46,15.00
2012,08,17,04,47,15.00
2012,08,17,04,48,15.00
2012,08,17,04,49,15.10
2012,08,17,04,50,15.00
2012,08,17,04,51,15.00
2012,08,17,04,52,15.00
2012,08,17,04,53,14.90
2012,08,17,04,54,14.90
2012,08,17,04,55,14.80
2012,08,17,04,56,14.80
2012,08,17,04,57,14.80
2012,08,17,04,58,14.80
2012,08,17,04,59,14.70
2012,08,17,05,00,14.70
2012,08,17,05,01,14.70
2012,08,17,05,02,14.70
2012,08,17,05,03,14.70
2012,08,17,05,04,14.70
2012,08,17,05,05,14.60
2012,08,17,05,06,14.60
2012,08,17,05,07,14.60
2012,08,17,05,08,14.60
2012,08,17,05,09,14.50
2012,08,17,05,10,14.50
2012,08,17,05,11,14.40
2012,08,17,05,12,14.40
2012,08,17,05,13,14.40
2012,08,17,05,14,14.30
2012,08,17,05,15,14.30
2012,08,17,05,16,14.30
2012,08,17,05,17,14.20
2012,08,17,05,18,14.20
2012,08,17,05,19,14.10
2012,08,17,05,20,14.10
2012,08,17,05,21,14.00
2012,08,17,05,22,14.00
2012,08,17,05,23,14.00
2012,08,17,05,24,14.00
2012,08,17,05,25,14.00
2012,08,17,05,26,14.00
2012,08,17,05,27,13.90
2012,08,17,05,28,13.90
2012,08,17,05,29,13.90
2012,08,17,05,30,13.90
2012,08,17,05,31,13.90
2012,08,17,05,32,13.90
2012,08,17,05,33,13.90
2012,08,17,05,34,13.90
2012,08,17,05,35,13.90
2012,08,17,05,36,13.90
2012,08,17,05,37,13.90
2012,08,17,05,38,13.90
2012,08,17,05,39,13.90
2012,08,17,05,40,13.90
2012,08,17,05,41,13.80
2012,08,17,05,42,13.80
2012,08,17,05,43,13.80
2012,08,17,05,44,13.80
2012,08,17,05,45,13.80
2012,08,17,05,46,13.80
2012,08,17,05,47,13.70
2012,08,17,05,48,13.70
2012,08,17,05,49,13.70
2012,08,17,05,50,13.70
2012,08,17,05,51,13.70
2012,08,17,05,52,13.70
2012,08,17,05,53,13.60
2012,08,17,05,54,13.60
2012,08,17,05,55,13.60
2012,08,17,05,56,13.60
2012,08,17,05,57,13.60
2012,08,17,05,58,13.60
2012,08,17,05,59,13.50
2012,08,17,06,00,13.50
2012,08,17,06,01,13.50
2012,08,17,06,02,13.50
2012,08,17,06,03,13.40
2012,08,17,06,04,13.40
2012,08,17,06,05,13.40
2012,08,17,06,06,13.40
2012,08,17,06,07,13.40
2012,08,17,06,08,13.40
2012,08,17,06,09,13.40
2012,08,17,06,10,13.40
2012,08,17,06,11,13.40
2012,08,17,06,12,13.40
2012,08,17,06,13,13.30
2012,08,17,06,14,13.30
2012,08,17,06,15,13.30
2012,08,17,06,16,13.30
2012,08,17,06,17,13.30
2012,08,17,06,18,13.30
2012,08,17,06,19,13.30
2012,08,17,06,20,13.30
2012,08,17,06,21,13.30
2012,08,17,06,22,13.30
2012,08,17,06,23,13.30
2012,08,17,06,24,13.30
2012,08,17,06,25,13.30
2012,08,17,06,26,13.30
2012,08,17,06,27,13.30
2012,08,17,06,28,13.30
2012,08,17,06,29,13.30
2012,08,17,06,30,13.30
2012,08,17,06,31,13.30
2012,08,17,06,32,13.30
2012,08,17,06,33,13.30
2012,08,17,06,34,13.30
2012,08,17,06,35,13.20
2012,08,17,06,36,13.20
2012,08,17,06,37,13.20
2012,08,17,06,38,13.20
2012,08,17,06,39,13.20
2012,08,17,06,40,13.20
2012,08,17,06,41,13.20
2012,08,17,06,42,13.20
2012,08,17,06,43,13.20
2012,08,17,06,44,13.20
2012,08,17,06,45,13.20
2012,08,17,06,46,13.20
2012,08,17,06,47,13.20
2012,08,17,06,48,13.20
2012,08,17,06,49,13.20
2012,08,17,06,50,13.20
2012,08,17,06,51,13.20
2012,08,17,06,52,13.20
2012,08,17,06,53,13.20
2012,08,17,06,54,13.20
2012,08,17,06,55,13.30
2012,08,17,06,56,13.30
2012,08,17,06,57,13.30
2012,08,17,06,58,13.30
2012,08,17,06,59,13.30
2012,08,17,07,00,13.30
2012,08,17,07,01,13.40
2012,08,17,07,02,13.40
2012,08,17,07,03,13.40
2012,08,17,07,04,13.40
2012,08,17,07,05,13.50
2012,08,17,07,06,13.50
2012,08,17,07,07,13.50
2012,08,17,07,08,13.50
2012,08,17,07,09,13.50
2012,08,17,07,10,13.50
2012,08,17,07,11,13.50
2012,08,17,07,12,13.40
2012,08,17,07,13,13.40
2012,08,17,07,14,13.40
2012,08,17,07,15,13.40
2012,08,17,07,16,13.40
2012,08,17,07,17,13.40
2012,08,17,07,18,13.40
2012,08,17,07,19,13.40
2012,08,17,07,20,13.40
2012,08,17,07,21,13.40
2012,08,17,07,22,13.40
2012,08,17,07,23,13.40
2012,08,17,07,24,13.40
2012,08,17,07,25,13.40
2012,08,17,07,26,13.40
2012,08,17,07,27,13.40
2012,08,17,07,28,13.40
2012,08,17,07,29,13.40
2012,08,17,07,30,13.40
2012,08,17,07,31,13.40
2012,08,17,07,32,13.40
2012,08,17,07,33,13.40
2012,08,17,07,34,13.40
2012,08,17,07,35,13.40
2012,08,17,07,36,13.40
2012,08,17,07,37,13.40
2012,08,17,07,38,13.40
2012,08,17,07,39,13.40
2012,08,17,07,40,13.40
2012,08,17,07,41,13.40
2012,08,17,07,42,13.40
2012,08,17,07,43,13.40
2012,08,17,07,44,13.40
2012,08,17,07,45,13.40
2012,08,17,07,46,13.40
2012,08,17,07,47,13.40
2012,08,17,07,48,13.40
2012,08,17,07,49,13.50
2012,08,17,07,50,13.40
2012,08,17,07,51,13.50
2012,08,17,07,52,13.50
2012,08,17,07,53,13.50
2012,08,17,07,54,13.50
2012,08,17,07,55,13.50
2012,08,17,07,56,13.50
2012,08,17,07,57,13.50
2012,08,17,07,58,13.50
2012,08,17,07,59,13.50
2012,08,17,08,00,13.50
2012,08,17,08,01,13.50
2012,08,17,08,02,13.50
2012,08,17,08,03,13.50
2012,08,17,08,04,13.50
2012,08,17,08,05,13.60
2012,08,17,08,06,13.60
2012,08,17,08,07,13.60
2012,08,17,08,08,13.60
2012,08,17,08,09,13.60
2012,08,17,08,10,13.60
2012,08,17,08,11,13.60
2012,08,17,08,12,13.60
2012,08,17,08,13,13.60
2012,08,17,08,14,13.60
2012,08,17,08,15,13.60
2012,08,17,08,16,13.60
2012,08,17,08,17,13.60
2012,08,17,08,18,13.60
2012,08,17,08,19,13.70
2012,08,17,08,20,13.70
2012,08,17,08,21,13.70
2012,08,17,08,22,13.70
2012,08,17,08,23,13.70
2012,08,17,08,24,13.70
2012,08,17,08,25,13.80
2012,08,17,08,26,13.80
2012,08,17,08,27,13.80
2012,08,17,08,28,13.80
2012,08,17,08,29,13.80
2012,08,17,08,30,13.80
2012,08,17,08,31,13.80
2012,08,17,08,32,13.80
2012,08,17,08,33,13.90
2012,08,17,08,34,13.90
2012,08,17,08,35,13.90
2012,08,17,08,36,13.90
2012,08,17,08,37,13.90
2012,08,17,08,38,13.90
2012,08,17,08,39,13.90
2012,08,17,08,40,13.90
2012,08,17,08,41,13.90
2012,08,17,08,42,13.90
2012,08,17,08,43,13.90
2012,08,17,08,44,13.90
2012,08,17,08,45,13.90
2012,08,17,08,46,13.90
2012,08,17,08,47,13.90
2012,08,17,08,48,13.90
2012,08,17,08,49,13.90
2012,08,17,08,50,14.00
2012,08,17,08,51,14.00
2012,08,17,08,52,14.00
2012,08,17,08,53,14.00
2012,08,17,08,54,14.10
2012,08,17,08,55,14.10
2012,08,17,08,56,14.10
2012,08,17,08,57,14.10
2012,08,17,08,58,14.10
2012,08,17,08,59,14.10
2012,08,17,09,00,14.10
2012,08,17,09,01,14.20
2012,08,17,09,02,14.20
2012,08,17,09,03,14.20
2012,08,17,09,04,14.20
2012,08,17,09,05,14.20
2012,08,17,09,06,14.20
2012,08,17,09,07,14.20
2012,08,17,09,08,14.20
2012,08,17,09,09,14.20
2012,08,17,09,10,14.20
2012,08,17,09,11,14.30
2012,08,17,09,12,14.30
2012,08,17,09,13,14.30
2012,08,17,09,14,14.30
2012,08,17,09,15,14.30
2012,08,17,09,16,14.30
2012,08,17,09,17,14.30
2012,08,17,09,18,14.40
2012,08,17,09,19,14.40
2012,08,17,09,20,14.40
2012,08,17,09,21,14.40
2012,08,17,09,22,14.40
2012,08,17,09,23,14.50
2012,08,17,09,24,14.50
2012,08,17,09,25,14.60
2012,08,17,09,26,14.60
2012,08,17,09,27,14.60
2012,08,17,09,28,14.70
2012,08,17,09,29,14.70
2012,08,17,09,30,14.70
2012,08,17,09,31,14.70
2012,08,17,09,32,14.70
2012,08,17,09,33,14.80
2012,08,17,09,34,14.80
2012,08,17,09,35,14.90
2012,08,17,09,36,14.90
2012,08,17,09,37,15.00
2012,08,17,09,38,15.00
2012,08,17,09,39,15.10
2012,08,17,09,40,15.10
2012,08,17,09,41,15.20
2012,08,17,09,42,15.20
2012,08,17,09,43,15.20
2012,08,17,09,44,15.20
2012,08,17,09,45,15.30
2012,08,17,09,46,15.30
2012,08,17,09,47,15.30
2012,08,17,09,48,15.30
2012,08,17,09,49,15.40
2012,08,17,09,50,15.40
2012,08,17,09,51,15.40
2012,08,17,09,52,15.50
2012,08,17,09,53,15.50
2012,08,17,09,54,15.60
2012,08,17,09,55,15.60
2012,08,17,09,56,15.70
2012,08,17,09,57,15.70
2012,08,17,09,58,15.80
2012,08,17,09,59,15.90
2012,08,17,10,00,16.00
2012,08,17,10,01,16.10
2012,08,17,10,02,16.20
2012,08,17,10,03,16.40
2012,08,17,10,04,16.50
2012,08,17,10,05,16.60
2012,08,17,10,06,16.70
2012,08,17,10,07,16.80
2012,08,17,10,08,16.90
2012,08,17,10,09,17.00
2012,08,17,10,10,17.10
2012,08,17,10,11,17.20
2012,08,17,10,12,17.40
2012,08,17,10,13,17.50
2012,08,17,10,14,17.60
2012,08,17,10,15,17.70
2012,08,17,10,16,17.80
2012,08,17,10,17,18.00
2012,08,17,10,18,18.10
2012,08,17,10,19,18.20
2012,08,17,10,20,18.30
2012,08,17,10,21,18.40
2012,08,17,10,22,18.50
2012,08,17,10,23,18.70
2012,08,17,10,24,18.80
2012,08,17,10,25,18.90
2012,08,17,10,26,19.00
2012,08,17,10,27,19.10
2012,08,17,10,28,19.20
2012,08,17,10,29,19.30
2012,08,17,10,30,19.30
2012,08,17,10,31,19.40
2012,08,17,10,32,19.50
2012,08,17,10,33,19.60
2012,08,17,10,34,19.70
2012,08,17,10,35,19.80
2012,08,17,10,36,19.80
2012,08,17,10,37,19.90
2012,08,17,10,38,20.00
2012,08,17,10,39,20.10
2012,08,17,10,40,20.10
2012,08,17,10,41,20.20
2012,08,17,10,42,20.30
2012,08,17,10,43,20.40
2012,08,17,10,44,20.50
2012,08,17,10,45,20.60
2012,08,17,10,46,20.70
2012,08,17,10,47,20.80
2012,08,17,10,48,20.90
2012,08,17,10,49,20.90
2012,08,17,10,50,21.00
2012,08,17,10,51,21.10
2012,08,17,10,52,21.20
2012,08,17,10,53,21.30
2012,08,17,10,54,21.50
2012,08,17,10,55,21.60
2012,08,17,10,56,21.70
2012,08,17,10,57,21.80
2012,08,17,10,58,21.90
2012,08,17,10,59,21.90
2012,08,17,11,00,22.00
2012,08,17,11,01,22.10
2012,08,17,11,02,22.20
2012,08,17,11,03,22.30
2012,08,17,11,04,22.40
2012,08,17,11,05,22.50
2012,08,17,11,06,22.60
2012,08,17,11,07,22.80
2012,08,17,11,08,22.90
2012,08,17,11,09,22.90
2012,08,17,11,10,23.00
2012,08,17,11,11,23.10
2012,08,17,11,12,23.20
2012,08,17,11,13,23.30
2012,08,17,11,14,23.40
2012,08,17,11,15,23.50
2012,08,17,11,16,23.60
2012,08,17,11,17,23.70
2012,08,17,11,18,23.80
2012,08,17,11,19,23.90
2012,08,17,11,20,24.00
2012,08,17,11,21,24.00
2012,08,17,11,22,24.10
2012,08,17,11,23,24.10
2012,08,17,11,24,24.10
2012,08,17,11,25,24.20
2012,08,17,11,26,24.30
2012,08,17,11,27,24.40
2012,08,17,11,28,24.50
2012,08,17,11,29,24.60
2012,08,17,11,30,24.70
2012,08,17,11,31,24.70
2012,08,17,11,32,24.80
2012,08,17,11,33,24.90
2012,08,17,11,34,25.00
2012,08,17,11,35,25.10
2012,08,17,11,36,25.20
2012,08,17,11,37,25.30
2012,08,17,11,38,25.40
2012,08,17,11,39,25.50
2012,08,17,11,40,25.50
2012,08,17,11,41,25.60
2012,08,17,11,42,25.60
2012,08,17,11,43,25.60
2012,08,17,11,44,25.70
2012,08,17,11,45,25.70
2012,08,17,11,46,25.70
2012,08,17,11,47,25.70
2012,08,17,11,48,25.70
2012,08,17,11,49,25.70
2012,08,17,11,50,25.70
2012,08,17,11,51,25.80
2012,08,17,11,52,25.80
2012,08,17,11,53,25.80
2012,08,17,11,54,25.90
2012,08,17,11,55,25.90
2012,08,17,11,56,26.00
2012,08,17,11,57,26.10
2012,08,17,11,58,26.10
2012,08,17,11,59,26.10
2012,08,17,12,00,26.20
2012,08,17,12,01,26.20
2012,08,17,12,02,26.20
2012,08,17,12,03,26.30
2012,08,17,12,04,26.30
2012,08,17,12,05,26.30
2012,08,17,12,06,26.30
2012,08,17,12,07,26.40
2012,08,17,12,08,26.40
2012,08,17,12,09,26.30
2012,08,17,12,10,26.20
2012,08,17,12,11,26.20
2012,08,17,12,12,26.10
2012,08,17,12,13,26.10
2012,08,17,12,14,26.10
2012,08,17,12,15,26.10
2012,08,17,12,16,26.10
2012,08,17,12,17,26.10
2012,08,17,12,18,26.10
2012,08,17,12,19,26.10
2012,08,17,12,20,26.10
2012,08,17,12,21,26.10
2012,08,17,12,22,26.10
2012,08,17,12,23,26.10
2012,08,17,12,24,26.10
2012,08,17,12,25,26.10
2012,08,17,12,26,26.10
2012,08,17,12,27,26.10
2012,08,17,12,28,26.20
2012,08,17,12,29,26.30
2012,08,17,12,30,26.30
2012,08,17,12,31,26.40
2012,08,17,12,32,26.40
2012,08,17,12,33,26.40
2012,08,17,12,34,26.40
2012,08,17,12,35,26.30
2012,08,17,12,36,26.20
2012,08,17,12,37,26.20
2012,08,17,12,38,26.20
2012,08,17,12,39,26.20
2012,08,17,12,40,26.30
2012,08,17,12,41,26.30
2012,08,17,12,42,26.40
2012,08,17,12,43,26.40
2012,08,17,12,44,26.30
2012,08,17,12,45,26.30
2012,08,17,12,46,26.30
2012,08,17,12,47,26.30
2012,08,17,12,48,26.30
2012,08,17,12,49,26.30
2012,08,17,12,50,26.30
2012,08,17,12,51,26.30
2012,08,17,12,52,26.30
2012,08,17,12,53,26.30
2012,08,17,12,54,26.30
2012,08,17,12,55,26.40
2012,08,17,12,56,26.50
2012,08,17,12,57,26.50
2012,08,17,12,58,26.60
2012,08,17,12,59,26.60
2012,08,17,13,00,26.70
2012,08,17,13,01,26.80
2012,08,17,13,02,26.90
2012,08,17,13,03,26.90
2012,08,17,13,04,27.00
2012,08,17,13,05,27.10
2012,08,17,13,06,27.10
2012,08,17,13,07,27.10
2012,08,17,13,08,27.10
2012,08,17,13,09,27.10
2012,08,17,13,10,27.00
2012,08,17,13,11,27.00
2012,08,17,13,12,27.00
2012,08,17,13,13,27.00
2012,08,17,13,14,27.00
2012,08,17,13,15,27.00
2012,08,17,13,16,27.00
2012,08,17,13,17,27.00
2012,08,17,13,18,26.90
2012,08,17,13,19,26.90
2012,08,17,13,20,26.90
2012,08,17,13,21,26.90
2012,08,17,13,22,26.90
2012,08,17,13,23,26.80
2012,08,17,13,24,26.70
2012,08,17,13,25,26.60
2012,08,17,13,26,26.50
2012,08,17,13,27,26.40
2012,08,17,13,28,26.30
2012,08,17,13,29,26.20
2012,08,17,13,30,26.20
2012,08,17,13,31,26.10
2012,08,17,13,32,26.00
2012,08,17,13,33,25.90
2012,08,17,13,34,25.90
2012,08,17,13,35,25.80
2012,08,17,13,36,25.80
2012,08,17,13,37,25.70
2012,08,17,13,38,25.60
2012,08,17,13,39,25.50
2012,08,17,13,40,25.50
2012,08,17,13,41,25.50
2012,08,17,13,42,25.60
2012,08,17,13,43,25.60
2012,08,17,13,44,25.60
2012,08,17,13,45,25.60
2012,08,17,13,46,25.60
2012,08,17,13,47,25.70
2012,08,17,13,48,25.70
2012,08,17,13,49,25.80
2012,08,17,13,50,25.90
2012,08,17,13,51,26.00
2012,08,17,13,52,26.00
2012,08,17,13,53,26.00
2012,08,17,13,54,25.90
2012,08,17,13,55,25.90
2012,08,17,13,56,25.90
2012,08,17,13,57,25.90
2012,08,17,13,58,25.90
2012,08,17,13,59,26.00
2012,08,17,14,00,26.00
2012,08,17,14,01,26.10
2012,08,17,14,02,26.20
2012,08,17,14,03,26.20
2012,08,17,14,04,26.20
2012,08,17,14,05,26.20
2012,08,17,14,06,26.20
2012,08,17,14,07,26.10
2012,08,17,14,08,26.00
2012,08,17,14,09,26.00
2012,08,17,14,10,26.00
2012,08,17,14,11,25.90
2012,08,17,14,12,25.90
2012,08,17,14,13,25.90
2012,08,17,14,14,25.80
2012,08,17,14,15,25.80
2012,08,17,14,16,25.80
2012,08,17,14,17,25.80
2012,08,17,14,18,25.80
2012,08,17,14,19,25.80
2012,08,17,14,20,25.80
2012,08,17,14,21,25.70
2012,08,17,14,22,25.70
2012,08,17,14,23,25.60
2012,08,17,14,24,25.50
2012,08,17,14,25,25.50
2012,08,17,14,26,25.40
2012,08,17,14,27,25.40
2012,08,17,14,28,25.40
2012,08,17,14,29,25.40
2012,08,17,14,30,25.40
2012,08,17,14,31,25.40
2012,08,17,14,32,25.40
2012,08,17,14,33,25.40
2012,08,17,14,34,25.50
2012,08,17,14,35,25.50
2012,08,17,14,36,25.50
2012,08,17,14,37,25.50
2012,08,17,14,38,25.40
2012,08,17,14,39,25.40
2012,08,17,14,40,25.50
2012,08,17,14,41,25.50
2012,08,17,14,42,25.40
2012,08,17,14,43,25.30
2012,08,17,14,44,25.30
2012,08,17,14,45,25.20
2012,08,17,14,46,25.20
2012,08,17,14,47,25.20
2012,08,17,14,48,25.10
2012,08,17,14,49,25.00
2012,08,17,14,50,24.90
2012,08,17,14,51,24.80
2012,08,17,14,52,24.70
2012,08,17,14,53,24.70
2012,08,17,14,54,24.60
2012,08,17,14,55,24.60
2012,08,17,14,56,24.60
2012,08,17,14,57,24.60
2012,08,17,14,58,24.60
2012,08,17,14,59,24.50
2012,08,17,15,00,24.40
2012,08,17,15,01,24.20
2012,08,17,15,02,23.90
2012,08,17,15,03,23.70
2012,08,17,15,04,23.50
2012,08,17,15,05,23.30
2012,08,17,15,06,23.20
2012,08,17,15,07,23.20
2012,08,17,15,08,23.20
2012,08,17,15,09,23.10
2012,08,17,15,10,23.00
2012,08,17,15,11,23.00
2012,08,17,15,12,22.90
2012,08,17,15,13,22.90
2012,08,17,15,14,22.80
2012,08,17,15,15,22.80
2012,08,17,15,16,22.70
2012,08,17,15,17,22.70
2012,08,17,15,18,22.70
2012,08,17,15,19,22.60
2012,08,17,15,20,22.60
2012,08,17,15,21,22.60
2012,08,17,15,22,22.60
2012,08,17,15,23,22.60
2012,08,17,15,24,22.70
2012,08,17,15,25,22.60
2012,08,17,15,26,22.60
2012,08,17,15,27,22.60
2012,08,17,15,28,22.60
2012,08,17,15,29,22.60
2012,08,17,15,30,22.60
2012,08,17,15,31,22.60
2012,08,17,15,32,22.60
2012,08,17,15,33,22.60
2012,08,17,15,34,22.70
2012,08,17,15,35,22.70
2012,08,17,15,36,22.80
2012,08,17,15,37,22.80
2012,08,17,15,38,22.90
2012,08,17,15,39,22.90
2012,08,17,15,40,23.00
2012,08,17,15,41,23.00
2012,08,17,15,42,23.00
2012,08,17,15,43,23.00
2012,08,17,15,44,23.00
2012,08,17,15,45,23.00
2012,08,17,15,46,23.00
2012,08,17,15,47,22.90
2012,08,17,15,48,22.90
2012,08,17,15,49,22.90
2012,08,17,15,50,22.80
2012,08,17,15,51,22.80
2012,08,17,15,52,22.80
2012,08,17,15,53,22.80
2012,08,17,15,54,22.80
2012,08,17,15,55,22.90
2012,08,17,15,56,22.90
2012,08,17,15,57,23.00
2012,08,17,15,58,23.10
2012,08,17,15,59,23.10
2012,08,17,16,00,23.20
2012,08,17,16,01,23.30
2012,08,17,16,02,23.20
2012,08,17,16,03,23.20
2012,08,17,16,04,23.20
2012,08,17,16,05,23.20
2012,08,17,16,06,23.20
2012,08,17,16,07,23.20
2012,08,17,16,08,23.20
2012,08,17,16,09,23.20
2012,08,17,16,10,23.20
2012,08,17,16,11,23.20
2012,08,17,16,12,23.20
2012,08,17,16,13,23.20
2012,08,17,16,14,23.10
2012,08,17,16,15,23.10
2012,08,17,16,16,23.10
2012,08,17,16,17,23.10
2012,08,17,16,18,23.10
2012,08,17,16,19,23.10
2012,08,17,16,20,23.10
2012,08,17,16,21,23.10
2012,08,17,16,22,23.10
2012,08,17,16,23,23.10
2012,08,17,16,24,23.00
2012,08,17,16,25,22.90
2012,08,17,16,26,22.90
2012,08,17,16,27,22.80
2012,08,17,16,28,22.90
2012,08,17,16,29,22.90
2012,08,17,16,30,22.80
2012,08,17,16,31,22.80
2012,08,17,16,32,22.70
2012,08,17,16,33,22.60
2012,08,17,16,34,22.60
2012,08,17,16,35,22.50
2012,08,17,16,36,22.40
2012,08,17,16,37,22.40
2012,08,17,16,38,22.40
2012,08,17,16,39,22.40
2012,08,17,16,40,22.30
2012,08,17,16,41,22.30
2012,08,17,16,42,22.20
2012,08,17,16,43,22.20
2012,08,17,16,44,22.20
2012,08,17,16,45,22.20
2012,08,17,16,46,22.20
2012,08,17,16,47,22.20
2012,08,17,16,48,22.20
2012,08,17,16,49,22.20
2012,08,17,16,50,22.10
2012,08,17,16,51,22.00
2012,08,17,16,52,22.00
2012,08,17,16,53,22.00
2012,08,17,16,54,22.00
2012,08,17,16,55,22.00
2012,08,17,16,56,22.00
2012,08,17,16,57,22.00
2012,08,17,16,58,22.10
2012,08,17,16,59,22.00
2012,08,17,17,00,22.00
2012,08,17,17,01,22.00
2012,08,17,17,02,22.00
2012,08,17,17,03,22.00
2012,08,17,17,04,22.00
2012,08,17,17,05,22.00
2012,08,17,17,06,22.00
2012,08,17,17,07,22.00
2012,08,17,17,08,22.00
2012,08,17,17,09,22.00
2012,08,17,17,10,22.00
2012,08,17,17,11,22.00
2012,08,17,17,12,22.00
2012,08,17,17,13,22.10
2012,08,17,17,14,22.10
2012,08,17,17,15,22.00
2012,08,17,17,16,22.00
2012,08,17,17,17,22.00
2012,08,17,17,18,22.00
2012,08,17,17,19,22.00